User: anonymous   Login
Location: Unspecified
(0.0000°N, 0.0000°E)
Time: 14:03:41
(UTC+00:00)
Language:

EUCROPIS - Orbit

View from above orbital plane
View from above orbital plane
View from above satellite
View from above satellite

Ground track
Ground track

The orbit data is extracted from the following two-line orbital elements,

1 43807U 18099BB  21341.64105711  .00000148  00000-0  18216-4 0  9990
2 43807  97.6499  48.9170 0012766 181.2980 178.8210 14.96162049163805
Epoch (UTC): 07 December 2021 15:23:07
Eccentricity: 0.0012766
inclination: 97.6499°
perigee height: 570 km
apogee height: 587 km
right ascension of ascending node: 48.9170°
argument of perigee: 181.2980°
revolutions per day: 14.96162049
mean anomaly at epoch: 178.8210°
orbit number at epoch: 16380

The dashed part of the orbit path shows where the satellite is in the earth's shadow,  

DLR